This is the latest recevied weather packets stored in our database for station/object KG2V. If no packets are shown the sender has not sent any weather packets the latest 10 day(s).
| Time | Temp. | Humidity | Pressure | Rain* | Wind** | Luminosity | Snow |
|---|---|---|---|---|---|---|---|
| 1778243685 | 4.44° C | 97% | 1008.6 hPa | 0 mm | - | 80 W/m² | - |
| 1778243380 | 3.89° C | 97% | 1008.6 hPa | 0 mm | - | 63 W/m² | - |
| 1778243077 | 3.89° C | 98% | 1008.5 hPa | 0 mm | - | 61 W/m² | - |
| 1778242774 | 4.44° C | 99% | 1008.5 hPa | 1.27 mm | - | 41 W/m² | - |
| 1778242473 | 4.44° C | 99% | 1008.5 hPa | 3.05 mm | - | 21 W/m² | - |
| 1778242170 | 5° C | 99% | 1008.5 hPa | 1.78 mm | - | 24 W/m² | - |
| 1778241868 | 5° C | 99% | 1008.3 hPa | 0 mm | - | 23 W/m² | - |
| 1778241565 | 4.44° C | 99% | 1008.5 hPa | 0 mm | - | 15 W/m² | - |
| 1778241263 | 4.44° C | 99% | 1008 hPa | 0 mm | - | 16 W/m² | - |
| 1778240959 | 4.44° C | 99% | 1008.1 hPa | 0 mm | - | 19 W/m² | - |
| 1778240656 | 4.44° C | 99% | 1007.7 hPa | 0 mm | - | 14 W/m² | - |
| 1778240352 | 4.44° C | 99% | 1007.4 hPa | 0 mm | - | 18 W/m² | - |
| 1778240051 | 4.44° C | 99% | 1007.6 hPa | 0 mm | - | 22 W/m² | - |
| 1778239748 | 4.44° C | 99% | 1007.4 hPa | 0 mm | - | 18 W/m² | - |
| 1778239444 | 4.44° C | 99% | 1007.3 hPa | 0 mm | - | 20 W/m² | - |
| 1778239141 | 4.44° C | 99% | 1007.4 hPa | 0 mm | - | 17 W/m² | - |
| 1778238838 | 4.44° C | 99% | 1007.3 hPa | 0 mm | - | 15 W/m² | - |
| 1778238535 | 4.44° C | 99% | 1007.3 hPa | 0 mm | - | 22 W/m² | - |
| 1778238233 | 4.44° C | 99% | 1007 hPa | 0 mm | - | 29 W/m² | - |
| 1778237932 | 3.89° C | 99% | 1007 hPa | 0 mm | - | 22 W/m² | - |
| 1778237629 | 3.89° C | 99% | 1007 hPa | 0 mm | - | 23 W/m² | - |
| 1778237326 | 3.89° C | 99% | 1007 hPa | 0 mm | - | 26 W/m² | - |
| 1778237023 | 3.89° C | 99% | 1006.8 hPa | 0 mm | - | 29 W/m² | - |
| 1778236721 | 3.89° C | 99% | 1006.7 hPa | 0 mm | - | 19 W/m² | - |
| 1778236417 | 3.33° C | 99% | 1007 hPa | 0 mm | - | 13 W/m² | - |
* Rain latest hour (hover to see other rain measurements)
** Current wind speed in m/s (hover to see current wind gust speed)